Location: Winnipeg
(49.8830°N, 97.1670°W)
Time: 11:24:12
(UTC-06:00)

X-37B - Visible Passes

Search period start: 08 December 2022 00:00
Search period end: 18 December 2022 00:00
Orbit: 277 x 277 km, 45.0° (Epoch: 01 November)

Date Brightness Start Highest point End Pass type
(mag) Time Alt. Az. Time Alt. Az. Time Alt. Az.
10 Dec 2.6 17:31:57 10° S 17:33:09 13° SSE 17:34:19 10° SE visible
10 Dec 3.5 19:04:44 10° SW 19:04:54 11° SW 19:04:54 11° SW visible
11 Dec 2.3 17:31:57 10° SSW 17:33:40 17° SSE 17:35:22 10° ESE visible
11 Dec 3.5 19:05:18 10° WSW 19:05:33 12° WSW 19:05:33 12° WSW visible
12 Dec 2.0 17:32:15 10° SW 17:34:12 21° SSE 17:36:09 10° ESE visible
12 Dec 3.5 19:05:55 10° WSW 19:06:12 12° WSW 19:06:12 12° WSW visible
13 Dec 1.9 17:32:41 10° SW 17:34:46 24° S 17:36:50 10° ESE visible
13 Dec 3.6 19:06:36 10° WSW 19:06:53 12° WSW 19:06:53 12° WSW visible
14 Dec 1.8 17:33:13 10° WSW 17:35:20 25° S 17:37:28 10° ESE visible
14 Dec 3.6 19:07:24 10° WSW 19:07:36 11° WSW 19:07:36 11° WSW visible
15 Dec 1.9 17:33:49 10° WSW 17:35:55 25° S 17:38:01 10° SE visible
16 Dec 2.2 17:34:29 10° WSW 17:36:29 22° S 17:38:29 10° SE visible
17 Dec 2.6 17:35:14 10° WSW 17:37:02 18° SSW 17:38:50 10° SSE visible
